Location: Haliburton Scout Reserve
(45.0900°N, 78.3200°W)
Time: 06:53:32
(UTC-04:00)

CAS-4B - Visible Passes

Search period start: 29 May 2022 00:00
Search period end: 08 June 2022 00:00
Orbit: 525 x 536 km, 43.0° (Epoch: 29 May)

Date Brightness Start Highest point End Pass type
(mag) Time Alt. Az. Time Alt. Az. Time Alt. Az.
29 May ? 21:55:23 10° W 21:58:57 30° SSW 22:01:42 14° SSE visible
30 May ? 21:43:13 10° W 21:46:38 26° SSW 21:49:51 11° SSE visible
31 May ? 21:31:05 10° W 21:34:18 22° SSW 21:37:29 10° SSE visible
